Time,TemperatureF,DewpointF,PressureIn,WindDirection,WindDirectionDegrees,WindSpeedMPH,WindSpeedGustMPH,Humidity,HourlyPrecipIn,Conditions,Clouds,dailyrainin,SoftwareType,DateUTC
2013-02-25 00:12:00,46.6,42.0,30.23,South,169,6.0,11.0,84,0.00,,,0.00,weatherlink.com 1.10,2013-02-25 08:12:00,
2013-02-25 00:27:00,46.4,42.0,30.23,South,183,2.0,11.0,85,0.00,,,0.00,weatherlink.com 1.10,2013-02-25 08:27:00,
2013-02-25 00:42:00,46.1,42.0,30.24,SE,146,8.0,8.0,85,0.00,,,0.00,weatherlink.com 1.10,2013-02-25 08:42:00,
2013-02-25 00:57:00,46.2,42.0,30.23,SE,128,4.0,10.0,86,0.00,,,0.00,weatherlink.com 1.10,2013-02-25 08:57:00,
2013-02-25 01:12:00,46.1,43.0,30.24,SW,214,5.0,9.0,87,0.00,,,0.00,weatherlink.com 1.10,2013-02-25 09:12:00,
2013-02-25 01:27:00,46.0,42.0,30.24,South,174,2.0,9.0,87,0.00,,,0.00,weatherlink.com 1.10,2013-02-25 09:27:00,
2013-02-25 01:42:00,46.1,43.0,30.24,SSE,149,4.0,8.0,87,0.00,,,0.00,weatherlink.com 1.10,2013-02-25 09:42:00,
2013-02-25 01:57:00,46.0,43.0,30.24,SE,142,2.0,7.0,88,0.00,,,0.00,weatherlink.com 1.10,2013-02-25 09:57:00,
2013-02-25 02:12:00,46.0,43.0,30.24,SSW,198,2.0,6.0,89,0.00,,,0.00,weatherlink.com 1.10,2013-02-25 10:12:00,
2013-02-25 02:27:00,46.0,43.0,30.24,SW,217,0.0,5.0,90,0.00,,,0.00,weatherlink.com 1.10,2013-02-25 10:27:00,
2013-02-25 02:42:00,45.8,43.0,30.23,SE,142,3.0,5.0,89,0.00,,,0.00,weatherlink.com 1.10,2013-02-25 10:42:00,
2013-02-25 02:57:00,45.4,42.0,30.23,East,91,3.0,4.0,89,0.00,,,0.00,weatherlink.com 1.10,2013-02-25 10:57:00,
2013-02-25 03:12:00,45.2,42.0,30.24,SE,139,1.0,5.0,88,0.00,,,0.00,weatherlink.com 1.10,2013-02-25 11:12:00,
2013-02-25 03:27:00,45.6,43.0,30.24,East,93,0.0,6.0,90,0.00,,,0.00,weatherlink.com 1.10,2013-02-25 11:27:00,
2013-02-25 03:42:00,45.7,43.0,30.23,East,95,2.0,3.0,90,0.00,,,0.00,weatherlink.com 1.10,2013-02-25 11:42:00,
2013-02-25 03:57:00,45.5,43.0,30.23,SSE,152,0.0,7.0,90,0.00,,,0.00,weatherlink.com 1.10,2013-02-25 11:57:00,
2013-02-25 04:12:00,45.1,43.0,30.23,SSE,149,0.0,1.0,91,0.00,,,0.00,weatherlink.com 1.10,2013-02-25 12:12:00,
2013-02-25 04:27:00,45.1,43.0,30.23,SSE,153,0.0,4.0,91,0.00,,,0.00,weatherlink.com 1.10,2013-02-25 12:27:00,
2013-02-25 04:42:00,45.2,43.0,30.23,SSE,147,1.0,2.0,91,0.00,,,0.00,weatherlink.com 1.10,2013-02-25 12:42:00,
2013-02-25 05:12:00,44.3,42.0,30.23,NNE,18,0.0,0.0,91,0.00,,,0.00,weatherlink.com 1.10,2013-02-25 13:12:00,
2013-02-25 05:27:00,44.6,42.0,30.24,WSW,252,1.0,5.0,91,0.00,,,0.00,weatherlink.com 1.10,2013-02-25 13:27:00,
2013-02-25 05:42:00,44.5,42.0,30.24,SSW,198,2.0,5.0,91,0.00,,,0.00,weatherlink.com 1.10,2013-02-25 13:42:00,
2013-02-25 06:12:00,45.4,43.0,30.24,SSE,153,3.0,7.0,92,0.00,,,0.00,weatherlink.com 1.10,2013-02-25 14:12:00,
2013-02-25 06:27:00,45.1,43.0,30.25,SSW,194,3.0,7.0,91,0.00,,,0.00,weatherlink.com 1.10,2013-02-25 14:27:00,
2013-02-25 06:42:00,44.6,43.0,30.25,SE,143,4.0,6.0,92,0.00,,,0.00,weatherlink.com 1.10,2013-02-25 14:42:00,
2013-02-25 06:57:00,45.0,43.0,30.25,SE,143,2.0,6.0,93,0.00,,,0.00,weatherlink.com 1.10,2013-02-25 14:57:00,
2013-02-25 07:13:00,45.4,44.0,30.26,SE,146,2.0,5.0,93,0.00,,,0.00,weatherlink.com 1.10,2013-02-25 15:13:00,
2013-02-25 07:28:00,45.7,44.0,30.25,SSE,167,0.0,3.0,93,0.00,,,0.00,weatherlink.com 1.10,2013-02-25 15:28:00,
2013-02-25 07:43:00,46.2,44.0,30.25,South,189,1.0,6.0,92,0.00,,,0.00,weatherlink.com 1.10,2013-02-25 15:43:00,
2013-02-25 07:58:00,47.3,45.0,30.25,SSW,211,1.0,4.0,92,0.00,,,0.00,weatherlink.com 1.10,2013-02-25 15:58:00,
2013-02-25 08:13:00,48.2,45.0,30.25,South,188,2.0,4.0,89,0.00,,,0.00,weatherlink.com 1.10,2013-02-25 16:13:00,
2013-02-25 08:28:00,49.0,45.0,30.25,SE,134,0.0,7.0,87,0.00,,,0.00,weatherlink.com 1.10,2013-02-25 16:28:00,
2013-02-25 08:43:00,49.4,45.0,30.25,SE,145,1.0,6.0,85,0.00,,,0.00,weatherlink.com 1.10,2013-02-25 16:43:00,
2013-02-25 08:58:00,50.0,45.0,30.25,SSW,203,0.0,4.0,84,0.00,,,0.00,weatherlink.com 1.10,2013-02-25 16:58:00,
2013-02-25 09:13:00,50.4,45.0,30.24,SW,236,5.0,7.0,81,0.00,,,0.00,weatherlink.com 1.10,2013-02-25 17:13:00,
2013-02-25 09:28:00,50.5,46.0,30.24,SW,228,2.0,6.0,83,0.00,,,0.00,weatherlink.com 1.10,2013-02-25 17:28:00,
2013-02-25 09:43:00,51.0,45.0,30.24,SSW,201,4.0,8.0,81,0.00,,,0.00,weatherlink.com 1.10,2013-02-25 17:43:00,
2013-02-25 09:58:00,51.6,45.0,30.23,South,190,5.0,8.0,79,0.00,,,0.00,weatherlink.com 1.10,2013-02-25 17:58:00,
2013-02-25 10:13:00,52.0,45.0,30.24,SW,232,4.0,7.0,78,0.00,,,0.00,weatherlink.com 1.10,2013-02-25 18:13:00,
2013-02-25 10:28:00,52.5,44.0,30.24,SW,236,2.0,6.0,74,0.00,,,0.00,weatherlink.com 1.10,2013-02-25 18:28:00,
2013-02-25 10:43:00,53.7,44.0,30.24,South,191,1.0,6.0,70,0.00,,,0.00,weatherlink.com 1.10,2013-02-25 18:43:00,
2013-02-25 10:58:00,54.6,44.0,30.23,SSW,210,0.0,6.0,68,0.00,,,0.00,weatherlink.com 1.10,2013-02-25 18:58:00,
2013-02-25 11:13:00,55.0,44.0,30.23,WSW,239,4.0,7.0,66,0.00,,,0.00,weatherlink.com 1.10,2013-02-25 19:13:00,
2013-02-25 11:28:00,55.7,44.0,30.23,NW,307,2.0,7.0,64,0.00,,,0.00,weatherlink.com 1.10,2013-02-25 19:28:00,
2013-02-25 11:43:00,55.9,44.0,30.23,WSW,240,2.0,8.0,65,0.00,,,0.00,weatherlink.com 1.10,2013-02-25 19:43:00,
2013-02-25 11:58:00,56.9,44.0,30.22,South,190,2.0,7.0,63,0.00,,,0.00,weatherlink.com 1.10,2013-02-25 19:58:00,
2013-02-25 12:13:00,57.0,44.0,30.22,WSW,246,6.0,7.0,62,0.00,,,0.00,weatherlink.com 1.10,2013-02-25 20:13:00,
2013-02-25 12:28:00,57.3,45.0,30.21,SW,216,5.0,7.0,64,0.00,,,0.00,weatherlink.com 1.10,2013-02-25 20:28:00,
2013-02-25 12:43:00,58.2,45.0,30.20,WSW,248,2.0,7.0,61,0.00,,,0.00,weatherlink.com 1.10,2013-02-25 20:43:00,
2013-02-25 12:58:00,60.1,45.0,30.20,SSE,155,5.0,5.0,58,0.00,,,0.00,weatherlink.com 1.10,2013-02-25 20:58:00,
2013-02-25 13:14:00,59.8,45.0,30.20,WSW,239,9.0,9.0,58,0.00,,,0.00,weatherlink.com 1.10,2013-02-25 21:14:00,
2013-02-25 13:29:00,59.8,44.0,30.19,South,177,2.0,7.0,57,0.00,,,0.00,weatherlink.com 1.10,2013-02-25 21:29:00,
2013-02-25 13:44:00,60.7,45.0,30.20,SW,218,3.0,6.0,56,0.00,,,0.00,weatherlink.com 1.10,2013-02-25 21:44:00,
2013-02-25 13:59:00,59.7,45.0,30.19,SSW,205,4.0,8.0,58,0.00,,,0.00,weatherlink.com 1.10,2013-02-25 21:59:00,
2013-02-25 14:14:00,60.5,45.0,30.19,SSW,193,3.0,8.0,57,0.00,,,0.00,weatherlink.com 1.10,2013-02-25 22:14:00,
2013-02-25 14:29:00,61.2,45.0,30.18,SW,218,6.0,8.0,56,0.00,,,0.00,weatherlink.com 1.10,2013-02-25 22:29:00,
2013-02-25 14:44:00,61.4,46.0,30.18,SW,232,4.0,5.0,57,0.00,,,0.00,weatherlink.com 1.10,2013-02-25 22:44:00,
2013-02-25 14:59:00,61.5,46.0,30.18,ESE,118,1.0,7.0,57,0.00,,,0.00,weatherlink.com 1.10,2013-02-25 22:59:00,
2013-02-25 15:14:00,61.5,46.0,30.18,WSW,239,4.0,6.0,58,0.00,,,0.00,weatherlink.com 1.10,2013-02-25 23:14:00,
2013-02-25 15:29:00,61.8,46.0,30.18,SSE,152,1.0,6.0,56,0.00,,,0.00,weatherlink.com 1.10,2013-02-25 23:29:00,
2013-02-25 15:44:00,61.9,46.0,30.17,WSW,239,5.0,7.0,56,0.00,,,0.00,weatherlink.com 1.10,2013-02-25 23:44:00,
2013-02-25 16:28:00,62.0,47.0,30.16,SSW,200,3.0,7.0,59,0.00,,,0.00,weatherlink.com 1.10,2013-02-26 00:28:00,
2013-02-25 16:43:00,61.4,47.0,30.16,South,178,3.0,6.0,60,0.00,,,0.00,weatherlink.com 1.10,2013-02-26 00:43:00,
2013-02-25 16:58:00,60.3,47.0,30.16,WSW,241,1.0,6.0,62,0.00,,,0.00,weatherlink.com 1.10,2013-02-26 00:58:00,
2013-02-25 17:13:00,59.6,47.0,30.15,SW,233,5.0,5.0,63,0.00,,,0.00,weatherlink.com 1.10,2013-02-26 01:13:00,
2013-02-25 17:28:00,59.1,47.0,30.15,SW,216,2.0,5.0,64,0.00,,,0.00,weatherlink.com 1.10,2013-02-26 01:28:00,
2013-02-25 17:43:00,57.6,48.0,30.15,SE,136,0.0,6.0,70,0.00,,,0.00,weatherlink.com 1.10,2013-02-26 01:43:00,
2013-02-25 17:58:00,56.1,47.0,30.16,ESE,116,3.0,4.0,72,0.00,,,0.00,weatherlink.com 1.10,2013-02-26 01:58:00,
2013-02-25 18:13:00,55.0,47.0,30.16,SW,229,0.0,3.0,75,0.00,,,0.00,weatherlink.com 1.10,2013-02-26 02:13:00,
2013-02-25 18:29:00,54.1,47.0,30.16,SE,126,0.0,3.0,77,0.00,,,0.00,weatherlink.com 1.10,2013-02-26 02:29:00,
2013-02-25 18:43:00,53.2,46.0,30.17,ESE,103,0.0,0.0,77,0.00,,,0.00,weatherlink.com 1.10,2013-02-26 02:43:00,
2013-02-25 18:58:00,52.4,45.0,30.18,NE,39,1.0,2.0,77,0.00,,,0.00,weatherlink.com 1.10,2013-02-26 02:58:00,
2013-02-25 19:13:00,51.9,45.0,30.18,NE,41,0.0,2.0,77,0.00,,,0.00,weatherlink.com 1.10,2013-02-26 03:13:00,
2013-02-25 19:28:00,51.5,45.0,30.18,ESE,105,0.0,2.0,78,0.00,,,0.00,weatherlink.com 1.10,2013-02-26 03:28:00,
2013-02-25 19:44:00,51.0,44.0,30.18,East,94,0.0,2.0,78,0.00,,,0.00,weatherlink.com 1.10,2013-02-26 03:44:00,
2013-02-25 19:58:00,50.4,44.0,30.18,East,87,0.0,1.0,78,0.00,,,0.00,weatherlink.com 1.10,2013-02-26 03:58:00,
2013-02-25 20:13:00,50.2,44.0,30.17,East,101,0.0,1.0,78,0.00,,,0.00,weatherlink.com 1.10,2013-02-26 04:13:00,
2013-02-25 20:28:00,49.5,43.0,30.18,NE,56,0.0,1.0,79,0.00,,,0.00,weatherlink.com 1.10,2013-02-26 04:28:00,
2013-02-25 20:43:00,49.2,43.0,30.18,East,89,0.0,2.0,78,0.00,,,0.00,weatherlink.com 1.10,2013-02-26 04:43:00,
2013-02-25 20:58:00,49.4,43.0,30.18,East,94,0.0,2.0,78,0.00,,,0.00,weatherlink.com 1.10,2013-02-26 04:58:00,
2013-02-25 21:14:00,49.1,43.0,30.18,SSE,166,0.0,1.0,79,0.00,,,0.00,weatherlink.com 1.10,2013-02-26 05:14:00,
2013-02-25 21:28:00,48.1,42.0,30.19,NE,49,0.0,2.0,80,0.00,,,0.00,weatherlink.com 1.10,2013-02-26 05:28:00,
2013-02-25 21:44:00,47.9,43.0,30.19,ESE,115,0.0,0.0,82,0.00,,,0.00,weatherlink.com 1.10,2013-02-26 05:44:00,
2013-02-25 21:59:00,47.6,43.0,30.19,ESE,112,0.0,0.0,83,0.00,,,0.00,weatherlink.com 1.10,2013-02-26 05:59:00,
2013-02-25 22:14:00,47.2,43.0,30.19,East,89,0.0,2.0,85,0.00,,,0.00,weatherlink.com 1.10,2013-02-26 06:14:00,
2013-02-25 22:29:00,47.0,43.0,30.20,ESE,121,0.0,0.0,85,0.00,,,0.00,weatherlink.com 1.10,2013-02-26 06:29:00,
2013-02-25 22:44:00,46.7,43.0,30.19,East,85,0.0,0.0,85,0.00,,,0.00,weatherlink.com 1.10,2013-02-26 06:44:00,
2013-02-25 22:59:00,46.5,43.0,30.19,ENE,69,1.0,5.0,86,0.00,,,0.00,weatherlink.com 1.10,2013-02-26 06:59:00,
2013-02-25 23:14:00,46.5,42.0,30.20,East,82,0.0,2.0,83,0.00,,,0.00,weatherlink.com 1.10,2013-02-26 07:14:00,
2013-02-25 23:29:00,46.5,41.0,30.19,ENE,68,0.0,1.0,82,0.00,,,0.00,weatherlink.com 1.10,2013-02-26 07:29:00,
2013-02-25 23:44:00,47.2,41.0,30.19,NE,35,3.0,5.0,80,0.00,,,0.00,weatherlink.com 1.10,2013-02-26 07:44:00,